Regional Weather Roundup
Issued by NWS Upton, NY

Home | Current Version | Previous Version | Text Only | Print | Product List | Glossary On
Versions: 1 2 3 4 5 6 7 8 9 10 11 12 13 14 15 16 17 18 19 20 21 22 23 24 25 26 27
000
ASUS41 KOKX 232108
RWROKX

REGIONAL WEATHER ROUNDUP
NATIONAL WEATHER SERVICE NEW YORK NY
500 PM EDT SUN APR 23 2017

NOTE: "FAIR" INDICATES FEW OR NO CLOUDS BELOW 12,000 FEET WITH NO
SIGNIFICANT WEATHER AND/OR OBSTRUCTIONS TO VISIBILITY.

NYZ071-072-176-178-NJZ106-104-232200-
NEW YORK CITY METRO AREA

CITY           SKY/WX    TMP DP  RH WIND       PRES   REMARKS
Central Park   CLOUDY    62  36  37 S9        30.08S
Wall St Helipt CLOUDY    59  42  53 S7        30.09R
Bronx Bot Gard   N/A     61  37  41 E6        30.08S
LaGuardia APRT CLOUDY    60  40  47 S13       30.06S
Kennedy INTL   PTSUNNY   54  42  64 S14       30.10R
Breezy Point     N/A     50 N/A N/A S14G20      N/A
Newark/Liberty CLOUDY    64  38  38 SE8       30.06S
Teterboro      MOSUNNY   64  38  38 S10       30.05S
$$

NYZ177-179-078>081-232200-
LONG ISLAND NEW YORK

CITY           SKY/WX    TMP DP  RH WIND       PRES   REMARKS
Jones Beach      N/A     50 N/A N/A S12         N/A
Matinecock PT    N/A     61 N/A N/A S5          N/A
Farmingdale    CLOUDY    54  41  61 SW10      30.09R
MacArthur/ISP  PTSUNNY   53  40  61 S10       30.09R
Shirley        PTSUNNY   52  38  58 S9        30.10R
Mt Sinai Harb    N/A     57 N/A N/A S10         N/A
Westhampton    MOSUNNY   52  39  61 S8        30.11S
East Hampton     N/A     49  39  67 S9        30.09S
Montauk          N/A     51  41  68 S7        30.11S
$$

NYZ052-065-067-232200-
HUDSON VALLEY

CITY           SKY/WX    TMP DP  RH WIND       PRES   REMARKS
White Plains   MOSUNNY   61  36  39 S9        30.05R
Larchmont Harb   N/A     55 N/A N/A S14         N/A
Croton O-T Hud   N/A     64 N/A N/A S5          N/A
Newburgh       MOSUNNY   66  32  28 SW8       30.03F
Montgomery     SUNNY     68  31  25 SE7       30.01F
Poughkeepsie   SUNNY     67  35  30 SW5       30.01F
Albany         MOSUNNY   69  31  24 CALM      30.00F
$$

NJZ001-105-106-008-010-013-015-019>022-104-232200-
NEW JERSEY

CITY           SKY/WX    TMP DP  RH WIND       PRES   REMARKS
Newark/Liberty CLOUDY    64  38  38 SE8       30.06S
Teterboro      MOSUNNY   64  38  38 S10       30.05S
Caldwell       CLOUDY    67  34  29 VRB7      30.05S
Somerville     PTSUNNY   65  37  35 S3        30.04S
Linden           N/A     65  35  32 SE9       30.06S
Sussex         CLOUDY    68  31  25 SW3       30.04S
Andover          N/A     68  34  28 CALM      30.04R
Trenton        SUNNY     64  41  42 MISG      30.06S
Millville      MOSUNNY   57  46  66 SE9       30.09R
Atlantic City  CLOUDY    55  43  63 SE9       30.09F
Wrightstown    NOT AVBL
Toms River     MOSUNNY   56  44  64 SE10      30.10R
Belmar         MOSUNNY   55  38  52 S9        30.11R
$$

PAZ047>061-062-071-232200-
EASTERN PENNSYLVANIA

CITY           SKY/WX    TMP DP  RH WIND       PRES   REMARKS
Philadelphia   CLOUDY    64  38  38 CALM      30.07S
Allentown      MOSUNNY   66  35  31 CALM      30.05F
Scranton       SUNNY     69  28  21 W6        30.02S
$$

CTZ002-004>006-009-010-012-RIZ004-006-007-MAZ004-011-015-232200-
SOUTHERN NEW ENGLAND
 IN CT

CITY           SKY/WX    TMP DP  RH WIND       PRES   REMARKS
Bradley INTL   MOSUNNY   69  33  26 S8        30.01F
Hartford       CLOUDY    66  33  29 S9        30.02F
Danbury        CLOUDY    65  35  33 SW7       30.04F
Wtrbury/Oxford PTSUNNY   63  37  39 S15       30.04S
Bridgeport     MOSUNNY   59  41  51 S9        30.06F
Meriden        SUNNY     64  37  36 S14       30.04S
New Haven      MOSUNNY   57  39  51 SW5       30.06F
Chester          N/A     59  36  41 S8G15     30.06F
Groton         MOSUNNY   51  41  68 S12       30.08S
Wilimantic     CLOUDY    64  39  39 S15       30.04R

 IN RI

CITY           SKY/WX    TMP DP  RH WIND       PRES   REMARKS
Providence     NOT AVBL
Block Island   CLOUDY    50  41  71 S12       30.10R
Westerly       CLOUDY    52  40  63 S13       30.10R
 IN MA

CITY           SKY/WX    TMP DP  RH WIND       PRES   REMARKS
Boston         MOSUNNY   52  40  63 E20       30.03F
Worcester      SUNNY     64  24  21 W7        30.02S
Westfield      SUNNY     68  35  29 S8        29.99F
Provincetown   SUNNY     54  38  54 S8        30.07S
Nantucket      CLOUDY    48  41  76 SE9       30.10R
$$

ANZ330-335-338-340-345-350-353-355-232200-
COASTAL MARINE OBSERVATIONS


STATION/POSITION TIME  SKY/WX   TEMP    WIND        PRES    VSBY  WAVE
                                AIR SEA DIR/SP/G                  HT/PER
                 (UTC)          (F)     (DEG/KT/KT) (MB)    (MI)  (FT/S)
NY HARB ENTRANCE 1950            50 51  170/ 12/ 14 1018.9          3/11
20 S FIRE ISLAND 2050            49 50  170/ 10/ 12 1018.9          3/11
GREAT SOUTH BAY  2030            50 56  190/ 10/ 12   N/A
23 SSW MONTAUK P 1950            48 48              1019.4          3/11
15 E BARNEGAT LI 2030               51                N/A           4/11
HUDSON CANYON    1950            48 49   70/  4/  6 1020.0          4/11
KINGS POINT      2048            56 51  210/ 11/ 13 1018.0
EXECUTION ROCKS  NOT AVBL
CENTRAL LI SOUND 2015            53     180/  4/  6   N/A           1
EASTERN LI SOUND NOT AVBL
ROBBINS REEF     2048            52     170/ 18/ 19 1018.5
$$


>>>>>>>>>>>>>>>>>>>>>>>>>>>> KEY <<<<<<<<<<<<<<<<<<<<<<<<<<<
>                                                          <
>     SKY/WX - Sky Condition/Present Weather               <
>     TMP    - Temperature in Fahrenheit                   <
>     DP     - Dew Point in Fahrenheit                     <
>     RH     - Relative Humidity in Percent                <
>     WIND   - Direction (from) and Speed in MPH           <
>     PRES   - Mean Sea Level Pressure (inches of Hg)      <
>     WCI    - Wind Chill Index                            <
>     VSB    - VISIBILITY IN MILES                         <
>     HX     - HEAT INDEX                                  <
>     TC     - TEMPERATURE IN CELSIUS                      <
>     VRB    - VARIABLE WIND DIRECTION                     <
>                                                          <
>>>>>>>>>>>>>>>>>>>>>>>>>>>> KEY <<<<<<<<<<<<<<<<<<<<<<<<<<<




USA.gov is the U.S. government's official web portal to all federal, state and local government web resources and services.